AAL2189 KMIA-KIND

Flight info

Callsign AAL2189
Flight time N/A
Altitude 36000
Route HURCN4 KPASA Q118 THRSR Q79 SWAPP HAGAL GIIBS4
Aircraft A320/M-SDE3FGHIRWY/LB1

Departure

Time 2026-05-06 22:33
Airport Miami International Airport (KMIA)

Arrival

Time N/A
Airport Indianapolis International Airport (KIND)
Time Latitude Longitude Altitude Speed Heading
2026-05-06 22:04 25.79810 -80.27127 21 ft 0 kts 308°
2026-05-06 22:10 25.79800 -80.27136 22 ft 0 kts 308°
2026-05-06 22:11 25.79803 -80.27135 23 ft 0 kts 308°
2026-05-06 22:11 25.79804 -80.27127 21 ft 0 kts 308°
2026-05-06 22:21 25.79794 -80.27113 21 ft 3 kts 311°
2026-05-06 22:21 25.79781 -80.27100 21 ft 3 kts 347°
2026-05-06 22:21 25.79763 -80.27099 22 ft 3 kts
2026-05-06 22:21 25.79751 -80.27101 22 ft 3 kts 27°
2026-05-06 22:22 25.79740 -80.27109 22 ft 0 kts 46°
2026-05-06 22:23 25.79746 -80.27102 21 ft 5 kts 46°
2026-05-06 22:23 25.79774 -80.27071 21 ft 6 kts 45°
2026-05-06 22:24 25.79805 -80.27038 22 ft 7 kts 44°
2026-05-06 22:24 25.79843 -80.27005 22 ft 7 kts 26°
2026-05-06 22:24 25.79886 -80.26987 21 ft 6 kts 19°
2026-05-06 22:24 25.79935 -80.26969 21 ft 10 kts
2026-05-06 22:25 25.79984 -80.27017 22 ft 9 kts 308°
2026-05-06 22:25 25.80020 -80.27067 21 ft 7 kts 308°
2026-05-06 22:25 25.80053 -80.27097 21 ft 7 kts 335°
2026-05-06 22:25 25.80084 -80.27143 22 ft 9 kts 277°
2026-05-06 22:26 25.80080 -80.27231 22 ft 15 kts 267°
2026-05-06 22:26 25.80075 -80.27347 20 ft 17 kts 267°
2026-05-06 22:26 25.80070 -80.27493 17 ft 19 kts 268°
2026-05-06 22:26 25.80065 -80.27639 16 ft 18 kts 265°
2026-05-06 22:27 25.80058 -80.27773 16 ft 17 kts 267°
2026-05-06 22:27 25.80053 -80.27906 12 ft 17 kts 268°
2026-05-06 22:27 25.80048 -80.28037 11 ft 17 kts 267°
2026-05-06 22:27 25.80043 -80.28154 14 ft 13 kts 267°
2026-05-06 22:28 25.80039 -80.28248 15 ft 13 kts 267°
2026-05-06 22:28 25.80034 -80.28371 15 ft 19 kts 268°
2026-05-06 22:28 25.80029 -80.28516 16 ft 20 kts 268°
2026-05-06 22:28 25.80024 -80.28650 20 ft 15 kts 267°
2026-05-06 22:29 25.80018 -80.28786 22 ft 22 kts 267°
2026-05-06 22:29 25.80010 -80.28952 20 ft 21 kts 267°
2026-05-06 22:29 25.80002 -80.29108 21 ft 19 kts 266°
2026-05-06 22:29 25.79997 -80.29246 21 ft 17 kts 268°
2026-05-06 22:30 25.79992 -80.29384 19 ft 18 kts 267°
2026-05-06 22:30 25.79985 -80.29529 14 ft 19 kts 267°
2026-05-06 22:30 25.79979 -80.29665 14 ft 17 kts 267°
2026-05-06 22:30 25.79975 -80.29789 13 ft 16 kts 268°
2026-05-06 22:31 25.79970 -80.29910 11 ft 16 kts 267°
2026-05-06 22:31 25.79991 -80.30019 12 ft 14 kts 285°
2026-05-06 22:31 25.80017 -80.30107 15 ft 10 kts 305°
2026-05-06 22:31 25.80073 -80.30078 14 ft 15 kts 73°
2026-05-06 22:32 25.80076 -80.30029 13 ft 0 kts 87°
2026-05-06 22:32 25.80078 -80.29975 12 ft 17 kts 88°
2026-05-06 22:32 25.80090 -80.29655 14 ft 74 kts 88°
2026-05-06 22:33 25.80123 -80.28871 21 ft 129 kts 87°
2026-05-06 22:33 25.80171 -80.27711 136 ft 163 kts 87°
2026-05-06 22:33 25.80214 -80.26460 856 ft 164 kts 88°
2026-05-06 22:33 25.80263 -80.25186 1553 ft 167 kts 87°
2026-05-06 22:34 25.80337 -80.23849 2027 ft 184 kts 86°
2026-05-06 22:34 25.80418 -80.22345 2356 ft 206 kts 86°
2026-05-06 22:34 25.80485 -80.20646 2689 ft 233 kts 87°
2026-05-06 22:34 25.80556 -80.18752 3150 ft 257 kts 86°
2026-05-06 22:35 25.81034 -80.16821 3801 ft 267 kts 56°
2026-05-06 22:35 25.82437 -80.15479 4527 ft 271 kts 20°
2026-05-06 22:35 25.84281 -80.15073 5350 ft 272 kts 359°
2026-05-06 22:35 25.86182 -80.15120 6245 ft 274 kts 354°
2026-05-06 22:36 25.88104 -80.15285 7063 ft 278 kts 352°
2026-05-06 22:36 25.89991 -80.15733 7856 ft 279 kts 338°
2026-05-06 22:36 25.91779 -80.16537 8661 ft 282 kts 337°
2026-05-06 22:36 25.93639 -80.17276 9468 ft 286 kts 339°
2026-05-06 22:37 25.95546 -80.17958 10213 ft 290 kts 339°
2026-05-06 22:37 25.97407 -80.18983 10463 ft 310 kts 322°
2026-05-06 22:37 25.99009 -80.20696 10673 ft 329 kts 307°
2026-05-06 22:37 26.00211 -80.22900 11182 ft 338 kts 294°
2026-05-06 22:38 26.01087 -80.25340 11829 ft 342 kts 292°
2026-05-06 22:38 26.01974 -80.27808 12486 ft 345 kts 292°
2026-05-06 22:38 26.02882 -80.30295 13142 ft 349 kts 293°
2026-05-06 22:38 26.03804 -80.32803 13777 ft 352 kts 294°
2026-05-06 22:39 26.04734 -80.35343 14354 ft 356 kts 293°
2026-05-06 22:39 26.05665 -80.37907 14948 ft 358 kts 293°
2026-05-06 22:39 26.06585 -80.40456 15534 ft 360 kts 293°
2026-05-06 22:39 26.07517 -80.43048 16124 ft 362 kts 293°
2026-05-06 22:40 26.08458 -80.45663 16711 ft 364 kts 293°
2026-05-06 22:40 26.09401 -80.48292 17277 ft 367 kts 292°
2026-05-06 22:40 26.10353 -80.50944 17850 ft 369 kts 292°
2026-05-06 22:40 26.11310 -80.53607 18394 ft 372 kts 293°
2026-05-06 22:41 26.14093 -80.58434 19382 ft 375 kts 315°
2026-05-06 22:41 26.16131 -80.60249 19889 ft 377 kts 327°
2026-05-06 22:41 26.18487 -80.61566 20392 ft 381 kts 335°
2026-05-06 22:42 26.20929 -80.62730 20903 ft 382 kts 334°
2026-05-06 22:42 26.23383 -80.63899 21405 ft 384 kts 334°
2026-05-06 22:42 26.25847 -80.65074 21896 ft 386 kts 334°
2026-05-06 22:42 26.28293 -80.66242 22376 ft 388 kts 334°
2026-05-06 22:43 26.30779 -80.67432 22840 ft 390 kts 334°
2026-05-06 22:43 26.33280 -80.68632 23301 ft 392 kts 334°
2026-05-06 22:43 26.35793 -80.69837 23728 ft 394 kts 334°
2026-05-06 22:43 26.38303 -80.71075 24088 ft 394 kts 330°
2026-05-06 22:44 26.40624 -80.72707 24445 ft 393 kts 320°
2026-05-06 22:44 26.42612 -80.74789 24808 ft 392 kts 311°
2026-05-06 22:44 26.44456 -80.77040 25172 ft 394 kts 311°
2026-05-06 22:44 26.46316 -80.79296 25526 ft 395 kts 311°
2026-05-06 22:45 26.48190 -80.81556 25876 ft 397 kts 311°
2026-05-06 22:45 26.50067 -80.83818 26220 ft 398 kts 312°
2026-05-06 22:45 26.52118 -80.85915 26553 ft 401 kts 319°
2026-05-06 22:45 26.54290 -80.87881 26892 ft 402 kts 319°
2026-05-06 22:46 26.56438 -80.89827 27233 ft 404 kts 319°
2026-05-06 22:46 26.58626 -80.91812 27566 ft 405 kts 319°
2026-05-06 22:46 26.60822 -80.93806 27895 ft 406 kts 319°
2026-05-06 22:46 26.63029 -80.95814 28220 ft 408 kts 319°
2026-05-06 22:47 26.65232 -80.97820 28540 ft 409 kts 319°
2026-05-06 22:47 26.67443 -80.99833 28857 ft 410 kts 319°
2026-05-06 22:47 26.69630 -81.01826 29159 ft 411 kts 319°
2026-05-06 22:47 26.71853 -81.03854 29459 ft 412 kts 319°
2026-05-06 22:48 26.74081 -81.05886 29746 ft 413 kts 319°
2026-05-06 22:48 26.76316 -81.07921 30037 ft 414 kts 319°
2026-05-06 22:48 26.78564 -81.09968 30281 ft 415 kts 319°
2026-05-06 22:48 26.80803 -81.12007 30523 ft 416 kts 319°
2026-05-06 22:49 26.83051 -81.14060 30749 ft 417 kts 319°
2026-05-06 22:49 26.85292 -81.16115 31036 ft 415 kts 319°
2026-05-06 22:49 26.87523 -81.18162 31375 ft 413 kts 319°
2026-05-06 22:49 26.89744 -81.20195 31701 ft 411 kts 319°
2026-05-06 22:50 26.91920 -81.22186 32024 ft 409 kts 319°
2026-05-06 22:50 26.94121 -81.24199 32357 ft 407 kts 319°
2026-05-06 22:50 26.96310 -81.26203 32690 ft 405 kts 319°
2026-05-06 22:50 26.98490 -81.28198 33020 ft 403 kts 319°
2026-05-06 22:51 26.99931 -81.29519 33241 ft 402 kts 319°
2026-05-06 22:51 27.02091 -81.31498 33569 ft 399 kts 319°
2026-05-06 22:51 27.05009 -81.34005 34009 ft 398 kts 326°
2026-05-06 22:51 27.07408 -81.35558 34299 ft 398 kts 327°
2026-05-06 22:52 27.09033 -81.36589 34493 ft 397 kts 327°
2026-05-06 22:52 27.11402 -81.38089 34772 ft 395 kts 327°
2026-05-06 22:52 27.13794 -81.39602 35043 ft 394 kts 327°
2026-05-06 22:52 27.16181 -81.41114 35304 ft 392 kts 327°
2026-05-06 22:53 27.18558 -81.42620 35552 ft 391 kts 327°
2026-05-06 22:53 27.20927 -81.44123 35801 ft 390 kts 327°
2026-05-06 22:53 27.23286 -81.45623 35997 ft 389 kts 327°
2026-05-06 22:54 27.27961 -81.48603 36065 ft 387 kts 327°
2026-05-06 22:54 27.32638 -81.51587 36064 ft 387 kts 327°
2026-05-06 22:55 27.37591 -81.54055 36067 ft 389 kts 333°
2026-05-06 22:55 27.42554 -81.56302 36061 ft 388 kts 333°
2026-05-06 22:56 27.47563 -81.58577 36070 ft 387 kts 333°
2026-05-06 22:56 27.52568 -81.60861 36071 ft 387 kts 333°
2026-05-06 22:57 27.57527 -81.63127 36069 ft 387 kts 333°
2026-05-06 22:57 27.62509 -81.65404 36067 ft 386 kts 333°
2026-05-06 22:58 27.67485 -81.67683 36082 ft 385 kts 333°
2026-05-06 22:58 27.72450 -81.69962 36082 ft 385 kts 333°
2026-05-06 22:59 27.77412 -81.72235 36087 ft 384 kts 333°
2026-05-06 22:59 27.82331 -81.74490 36080 ft 383 kts 333°
2026-05-06 23:00 27.87272 -81.76755 36072 ft 383 kts 333°
2026-05-06 23:00 27.92206 -81.79026 36069 ft 381 kts 333°
2026-05-06 23:01 27.97112 -81.81291 36068 ft 380 kts 333°
2026-05-06 23:01 28.02017 -81.83555 36064 ft 381 kts 333°
2026-05-06 23:02 28.06897 -81.85802 36056 ft 381 kts 333°
2026-05-06 23:02 28.11808 -81.88064 36066 ft 381 kts 333°
2026-05-06 23:03 28.16729 -81.90349 36064 ft 380 kts 330°
2026-05-06 23:03 28.21147 -81.93521 36066 ft 375 kts 322°
2026-05-06 23:04 28.25397 -81.96888 36063 ft 375 kts 322°
2026-05-06 23:04 28.29674 -82.00279 36067 ft 375 kts 322°
2026-05-06 23:05 28.33954 -82.03673 36063 ft 375 kts 322°
2026-05-06 23:05 28.38243 -82.07074 36064 ft 375 kts 322°
2026-05-06 23:06 28.42528 -82.10469 36066 ft 376 kts 322°
2026-05-06 23:06 28.46819 -82.13879 36068 ft 376 kts 322°
2026-05-06 23:07 28.51079 -82.17269 36072 ft 376 kts 322°
2026-05-06 23:07 28.55366 -82.20686 36073 ft 376 kts 321°
2026-05-06 23:08 28.59651 -82.24104 36071 ft 376 kts 321°
2026-05-06 23:08 28.63935 -82.27524 36072 ft 376 kts 321°
2026-05-06 23:09 28.68195 -82.30923 36069 ft 376 kts 321°
2026-05-06 23:09 28.72481 -82.34337 36069 ft 376 kts 321°
2026-05-06 23:10 28.76766 -82.37762 36067 ft 376 kts 321°
2026-05-06 23:10 28.81042 -82.41197 36069 ft 376 kts 321°
2026-05-06 23:11 28.85326 -82.44636 36073 ft 376 kts 321°
2026-05-06 23:11 28.89587 -82.48052 36074 ft 376 kts 321°
2026-05-06 23:12 28.93871 -82.51495 36069 ft 376 kts 321°
2026-05-06 23:12 28.98153 -82.54935 36069 ft 376 kts 321°
2026-05-06 23:13 29.02430 -82.58379 36065 ft 376 kts 321°
2026-05-06 23:13 29.06685 -82.61813 36065 ft 376 kts 321°
2026-05-06 23:14 29.10970 -82.65272 36057 ft 377 kts 321°
2026-05-06 23:14 29.15258 -82.68731 36058 ft 377 kts 321°
2026-05-06 23:15 29.19548 -82.72195 36052 ft 377 kts 321°
2026-05-06 23:15 29.23800 -82.75641 36056 ft 377 kts 321°
2026-05-06 23:16 29.28087 -82.79119 36059 ft 378 kts 321°
2026-05-06 23:16 29.32390 -82.82609 36058 ft 378 kts 321°
2026-05-06 23:17 29.36673 -82.86084 36057 ft 378 kts 321°
2026-05-06 23:17 29.40961 -82.89564 36061 ft 378 kts 320°
2026-05-06 23:18 29.45269 -82.93076 36058 ft 378 kts 320°
2026-05-06 23:18 29.49548 -82.96560 36058 ft 379 kts 320°
2026-05-06 23:19 29.54209 -82.99497 36055 ft 386 kts 331°
2026-05-06 23:19 29.59165 -83.01851 36055 ft 387 kts 331°
2026-05-06 23:20 29.64151 -83.04215 36056 ft 387 kts 331°
2026-05-06 23:20 29.69139 -83.06585 36061 ft 388 kts 331°
2026-05-06 23:21 29.74129 -83.08965 36061 ft 388 kts 331°
2026-05-06 23:21 29.79124 -83.11354 36068 ft 388 kts 331°
2026-05-06 23:22 29.84088 -83.13732 36073 ft 388 kts 330°
2026-05-06 23:22 29.89088 -83.16133 36074 ft 389 kts 330°
2026-05-06 23:23 29.94084 -83.18536 36074 ft 389 kts 330°
2026-05-06 23:23 29.99062 -83.20919 36077 ft 389 kts 330°
2026-05-06 23:24 30.04070 -83.23326 36071 ft 389 kts 330°
2026-05-06 23:24 30.09050 -83.25725 36075 ft 389 kts 330°
2026-05-06 23:25 30.14058 -83.28136 36071 ft 389 kts 330°
2026-05-06 23:25 30.19070 -83.30554 36068 ft 390 kts 330°
2026-05-06 23:26 30.24082 -83.32967 36063 ft 390 kts 330°
2026-05-06 23:26 30.29093 -83.35383 36059 ft 390 kts 330°
2026-05-06 23:27 30.34082 -83.37796 36059 ft 391 kts 330°
2026-05-06 23:27 30.39114 -83.40236 36057 ft 391 kts 330°
2026-05-06 23:28 30.44123 -83.42671 36048 ft 392 kts 330°
2026-05-06 23:28 30.49159 -83.45114 36056 ft 393 kts 330°